timestamp,wind_dir_avg,wind_spd_avg,wind_spd_max_dir,wind_spd_gust,battery_voltage,lat,long
2022-10-30 00:04:00+00:00,253.0,9.41,250.0,11.5,12.49,47.59359,-54.27349
2022-10-30 00:14:00+00:00,251.0,9.49,253.0,10.62,12.41,47.59359,-54.27349
2022-10-30 00:24:00+00:00,252.0,9.87,257.0,11.26,12.41,47.59359,-54.27349
2022-10-30 00:34:00+00:00,253.0,9.91,253.0,10.9,12.41,47.59359,-54.27349
2022-10-30 00:44:00+00:00,243.0,9.07,243.0,10.6,12.41,47.59359,-54.27349
2022-10-30 00:54:00+00:00,237.0,7.91,233.0,10.54,12.41,47.59359,-54.27349
2022-10-30 01:04:00+00:00,235.0,8.23,236.0,9.89,12.41,47.59359,-54.27349
2022-10-30 01:14:00+00:00,240.0,8.19,244.0,9.62,12.41,47.59359,-54.27349
2022-10-30 01:24:00+00:00,235.0,9.78,234.0,10.72,12.41,47.59359,-54.27349
2022-10-30 01:34:00+00:00,238.0,7.61,248.0,8.74,12.41,47.59359,-54.27349
2022-10-30 01:44:00+00:00,237.0,8.38,240.0,9.57,12.41,47.59359,-54.27349
2022-10-30 01:54:00+00:00,237.0,8.63,238.0,9.98,12.41,47.59359,-54.27349
2022-10-30 02:04:00+00:00,236.0,8.9,239.0,10.56,12.41,47.59359,-54.27349
2022-10-30 02:14:00+00:00,236.0,8.69,239.0,10.76,12.41,47.59359,-54.27349
2022-10-30 02:24:00+00:00,233.0,9.14,236.0,10.51,12.41,47.59359,-54.27349
2022-10-30 02:34:00+00:00,239.0,8.98,244.0,10.25,12.41,47.59359,-54.27349
2022-10-30 02:44:00+00:00,229.0,8.65,235.0,10.95,12.41,47.59359,-54.27349
2022-10-30 02:54:00+00:00,232.0,9.83,223.0,12.14,12.41,47.59359,-54.27349
2022-10-30 03:04:00+00:00,239.0,11.58,242.0,13.28,12.41,47.59359,-54.27349
2022-10-30 03:14:00+00:00,238.0,11.18,239.0,12.4,12.41,47.59359,-54.27349
2022-10-30 03:24:00+00:00,235.0,9.37,240.0,11.1,12.41,47.59359,-54.27349
2022-10-30 03:34:00+00:00,244.0,10.7,247.0,12.0,12.41,47.59359,-54.27349
2022-10-30 03:44:00+00:00,241.0,10.46,245.0,11.74,12.41,47.59359,-54.27349
2022-10-30 03:54:00+00:00,244.0,9.64,249.0,10.77,12.41,47.59359,-54.27349
2022-10-30 04:04:00+00:00,257.0,8.97,247.0,11.5,12.41,47.59359,-54.27349
2022-10-30 04:14:00+00:00,254.0,9.23,256.0,11.63,12.41,47.59359,-54.27349
2022-10-30 04:24:00+00:00,233.0,8.06,239.0,10.84,12.41,47.59359,-54.27349
2022-10-30 04:34:00+00:00,244.0,8.56,254.0,10.19,12.41,47.59359,-54.27349
2022-10-30 04:44:00+00:00,249.0,10.63,250.0,11.62,12.41,47.59359,-54.27349
2022-10-30 04:54:00+00:00,245.0,8.73,242.0,10.74,12.41,47.59359,-54.27349
2022-10-30 05:04:00+00:00,251.0,8.5,252.0,10.69,12.41,47.59359,-54.27349
2022-10-30 05:14:01+00:00,245.0,8.98,242.0,10.88,12.33,47.59359,-54.27349
2022-10-30 05:24:01+00:00,241.0,9.89,242.0,11.37,12.33,47.59359,-54.27349
2022-10-30 05:34:01+00:00,237.0,11.8,234.0,13.26,12.33,47.59359,-54.27349
2022-10-30 05:44:01+00:00,243.0,11.69,244.0,12.71,12.33,47.59359,-54.27349
2022-10-30 05:54:01+00:00,239.0,11.2,240.0,12.57,12.33,47.59359,-54.27349
2022-10-30 06:04:01+00:00,240.0,10.77,234.0,12.14,12.33,47.59359,-54.27349
2022-10-30 06:14:00+00:00,241.0,10.34,241.0,11.75,12.33,47.59359,-54.27349
2022-10-30 06:24:00+00:00,244.0,10.94,243.0,12.77,12.33,47.59359,-54.27349
2022-10-30 06:34:00+00:00,243.0,9.42,243.0,10.76,12.33,47.59359,-54.27349
2022-10-30 06:44:00+00:00,251.0,10.41,249.0,12.0,12.33,47.59359,-54.27349
2022-10-30 06:54:00+00:00,247.0,9.63,250.0,11.07,12.33,47.59359,-54.27349
2022-10-30 07:04:00+00:00,244.0,9.54,246.0,11.51,12.33,47.59359,-54.27349
2022-10-30 07:14:00+00:00,243.0,10.1,241.0,12.03,12.33,47.59359,-54.27349
2022-10-30 07:24:00+00:00,235.0,10.13,233.0,13.25,12.33,47.59359,-54.27349
2022-10-30 07:34:00+00:00,236.0,9.03,237.0,10.75,12.33,47.59359,-54.27349
2022-10-30 07:44:00+00:00,236.0,8.93,240.0,10.92,12.33,47.59359,-54.27349
2022-10-30 07:54:00+00:00,241.0,10.72,236.0,12.46,12.33,47.59359,-54.27349
2022-10-30 08:04:00+00:00,242.0,8.79,247.0,10.32,12.33,47.59359,-54.27349
2022-10-30 08:14:01+00:00,243.0,8.74,253.0,10.58,12.25,47.59359,-54.27349
2022-10-30 08:24:01+00:00,236.0,10.63,237.0,12.65,12.25,47.59359,-54.27349
2022-10-30 08:34:01+00:00,242.0,9.82,239.0,11.97,12.25,47.59359,-54.27349
2022-10-30 08:44:01+00:00,238.0,8.6,244.0,10.23,12.25,47.59359,-54.27349
2022-10-30 08:54:01+00:00,237.0,9.87,237.0,11.21,12.25,47.59359,-54.27349
2022-10-30 09:04:01+00:00,237.0,9.37,241.0,11.79,12.25,47.59359,-54.27349
2022-10-30 09:14:00+00:00,233.0,9.89,239.0,11.67,12.25,47.59359,-54.27349
2022-10-30 09:24:00+00:00,236.0,10.49,237.0,11.79,12.25,47.59359,-54.27349
2022-10-30 09:34:00+00:00,242.0,10.73,240.0,12.55,12.25,47.59359,-54.27349
2022-10-30 09:44:00+00:00,243.0,9.52,241.0,11.15,12.25,47.59359,-54.27349
2022-10-30 09:54:00+00:00,242.0,9.99,250.0,11.33,12.25,47.59359,-54.27349
2022-10-30 10:04:00+00:00,239.0,10.6,236.0,12.45,12.25,47.59359,-54.27349
2022-10-30 10:14:01+00:00,235.0,9.71,232.0,11.23,12.25,47.59359,-54.27349
2022-10-30 10:24:01+00:00,239.0,10.17,240.0,12.05,12.25,47.59359,-54.27349
2022-10-30 10:34:01+00:00,235.0,10.45,234.0,12.5,12.25,47.59359,-54.27349
2022-10-30 10:44:01+00:00,245.0,9.69,247.0,10.97,12.25,47.59359,-54.27349
2022-10-30 10:54:01+00:00,248.0,9.95,245.0,11.18,12.25,47.59359,-54.27349
2022-10-30 11:04:01+00:00,244.0,10.18,239.0,11.32,12.25,47.59359,-54.27349
2022-10-30 11:14:00+00:00,248.0,10.37,247.0,11.28,13.76,47.59359,-54.27349
2022-10-30 11:24:00+00:00,245.0,9.7,244.0,11.36,13.76,47.59359,-54.27349
2022-10-30 11:34:00+00:00,246.0,9.88,251.0,11.83,13.76,47.59359,-54.27349
2022-10-30 11:44:00+00:00,248.0,9.74,254.0,11.6,13.76,47.59359,-54.27349
2022-10-30 11:54:00+00:00,247.0,9.71,244.0,11.34,13.76,47.59359,-54.27349
2022-10-30 12:04:00+00:00,248.0,8.76,250.0,10.64,13.76,47.59359,-54.27349
2022-10-30 12:14:01+00:00,249.0,8.63,250.0,9.79,14.32,47.59359,-54.27349
2022-10-30 12:24:01+00:00,254.0,8.46,251.0,10.5,14.32,47.59359,-54.27349
2022-10-30 12:34:01+00:00,254.0,8.12,257.0,10.07,14.32,47.59359,-54.27349
2022-10-30 12:44:01+00:00,257.0,10.39,256.0,12.02,14.32,47.59359,-54.27349
2022-10-30 12:54:01+00:00,273.0,9.19,276.0,10.75,14.32,47.59359,-54.27349
2022-10-30 13:04:01+00:00,266.0,7.76,277.0,9.91,14.32,47.59359,-54.27349
2022-10-30 13:14:00+00:00,272.0,9.78,275.0,11.4,14.32,47.59359,-54.27349
2022-10-30 13:24:00+00:00,272.0,11.96,276.0,13.5,14.32,47.59359,-54.27349
2022-10-30 13:34:00+00:00,267.0,10.74,270.0,12.34,14.32,47.59359,-54.27349
2022-10-30 13:44:00+00:00,257.0,11.04,257.0,12.39,14.32,47.59359,-54.27349
2022-10-30 13:54:00+00:00,257.0,11.02,261.0,11.99,14.32,47.59359,-54.27349
2022-10-30 14:04:00+00:00,263.0,10.33,257.0,11.24,14.32,47.59359,-54.27349
2022-10-30 14:14:00+00:00,255.0,10.44,255.0,12.33,13.68,47.59359,-54.27349
2022-10-30 14:24:00+00:00,256.0,11.45,252.0,12.6,13.68,47.59359,-54.27349
2022-10-30 14:34:00+00:00,264.0,10.19,262.0,11.76,13.68,47.59359,-54.27349
2022-10-30 14:44:00+00:00,271.0,9.01,270.0,10.47,13.68,47.59359,-54.27349
2022-10-30 14:54:00+00:00,268.0,8.53,273.0,10.15,13.68,47.59359,-54.27349
2022-10-30 15:04:00+00:00,252.0,10.07,248.0,11.77,13.68,47.59359,-54.27349
2022-10-30 16:14:01+00:00,257.0,9.28,261.0,10.92,14.0,47.59359,-54.27349
2022-10-30 16:24:01+00:00,255.0,8.29,246.0,9.61,14.0,47.59359,-54.27349
2022-10-30 16:34:01+00:00,256.0,8.6,258.0,10.4,14.0,47.59359,-54.27349
2022-10-30 16:44:01+00:00,259.0,7.79,260.0,9.07,14.0,47.59359,-54.27349
2022-10-30 16:54:01+00:00,246.0,8.31,251.0,9.98,14.0,47.59359,-54.27349
2022-10-30 17:04:01+00:00,251.0,8.94,260.0,10.22,14.0,47.59359,-54.27349
2022-10-30 17:14:00+00:00,248.0,9.4,251.0,10.34,13.6,47.59359,-54.27349
2022-10-30 17:24:00+00:00,251.0,7.5,256.0,8.2,13.6,47.59359,-54.27349
2022-10-30 17:34:00+00:00,253.0,7.75,254.0,8.99,13.6,47.59359,-54.27349
2022-10-30 17:44:00+00:00,259.0,7.06,260.0,8.63,13.6,47.59359,-54.27349
2022-10-30 17:54:00+00:00,253.0,8.34,252.0,9.34,13.6,47.59359,-54.27349
2022-10-30 18:04:00+00:00,247.0,9.24,246.0,10.31,13.6,47.59359,-54.27349
2022-10-30 18:14:01+00:00,277.0,8.53,276.0,9.83,14.32,47.59359,-54.27349
2022-10-30 18:24:01+00:00,268.0,9.0,269.0,10.19,14.32,47.59359,-54.27349
2022-10-30 18:34:01+00:00,273.0,9.11,274.0,10.75,14.32,47.59359,-54.27349
2022-10-30 18:44:01+00:00,273.0,7.73,273.0,8.93,14.32,47.59359,-54.27349
2022-10-30 18:54:01+00:00,265.0,9.32,266.0,10.62,14.32,47.59359,-54.27349
2022-10-30 19:04:01+00:00,270.0,8.99,276.0,10.0,14.32,47.59359,-54.27349
2022-10-30 19:14:01+00:00,270.0,8.83,275.0,10.03,13.92,47.59359,-54.27349
2022-10-30 19:24:01+00:00,267.0,8.58,269.0,9.5,13.92,47.59359,-54.27349
2022-10-30 19:34:01+00:00,268.0,9.02,265.0,10.35,13.92,47.59359,-54.27349
2022-10-30 19:44:01+00:00,272.0,7.71,278.0,8.51,13.92,47.59359,-54.27349
2022-10-30 19:54:01+00:00,267.0,8.06,266.0,9.3,13.92,47.59359,-54.27349
2022-10-30 20:04:01+00:00,274.0,6.66,274.0,8.29,13.92,47.59359,-54.27349
2022-10-30 20:14:00+00:00,268.0,7.1,273.0,8.09,13.6,47.59359,-54.27349
2022-10-30 20:24:00+00:00,268.0,7.4,268.0,8.2,13.6,47.59359,-54.27349
2022-10-30 20:34:00+00:00,262.0,5.81,261.0,7.76,13.6,47.59359,-54.27349
2022-10-30 20:44:00+00:00,262.0,6.77,264.0,8.0,13.6,47.59359,-54.27349
2022-10-30 20:54:00+00:00,254.0,7.46,257.0,8.04,13.6,47.59359,-54.27349
2022-10-30 21:04:00+00:00,255.0,7.51,257.0,8.56,13.6,47.59359,-54.27349
2022-10-30 21:14:00+00:00,253.0,7.06,255.0,10.12,12.73,47.59359,-54.27349
2022-10-30 21:24:00+00:00,247.0,6.82,253.0,9.41,12.73,47.59359,-54.27349
2022-10-30 21:34:00+00:00,245.0,8.58,247.0,10.0,12.73,47.59359,-54.27349
2022-10-30 21:44:00+00:00,242.0,8.22,245.0,10.08,12.73,47.59359,-54.27349
2022-10-30 21:54:00+00:00,238.0,8.2,242.0,9.83,12.73,47.59359,-54.27349
2022-10-30 22:04:00+00:00,241.0,8.48,245.0,9.73,12.73,47.59359,-54.27349
2022-10-30 22:14:00+00:00,240.0,8.33,240.0,9.57,12.49,47.59359,-54.27349
2022-10-30 22:24:00+00:00,239.0,8.25,240.0,9.53,12.49,47.59359,-54.27349
2022-10-30 22:34:00+00:00,238.0,7.72,243.0,9.39,12.49,47.59359,-54.27349
2022-10-30 22:44:00+00:00,237.0,8.65,240.0,10.13,12.49,47.59359,-54.27349
2022-10-30 22:54:00+00:00,233.0,8.1,237.0,10.03,12.49,47.59359,-54.27349
2022-10-30 23:04:00+00:00,236.0,8.22,240.0,10.05,12.49,47.59359,-54.27349
2022-10-30 23:14:00+00:00,236.0,8.09,237.0,9.48,12.49,47.59359,-54.27349
2022-10-30 23:24:00+00:00,230.0,7.37,236.0,8.93,12.49,47.59359,-54.27349
2022-10-30 23:34:00+00:00,233.0,7.49,236.0,8.95,12.49,47.59359,-54.27349
2022-10-30 23:44:00+00:00,244.0,7.26,249.0,8.75,12.49,47.59359,-54.27349
2022-10-30 23:54:00+00:00,236.0,6.27,245.0,8.7,12.49,47.59359,-54.27349
